HISPASAT 30W-5

Last updated on Mon Sep 15 2025 00:02:47 GMT+0000 (Coordinated Universal Time)

1 37264U 10070A 25257.22260994 -.00000228 00000+0 00000+0 0 9996 2 37264 0.0368 115.6046 0005570 57.6548 230.3448 1.00271150 50417
UTC large
Height (km)
Speed (km/s)
/
Latitude / Longitude
Inclination (degrees)
Orbital Period (minutes)
Azimuth
Elevation
Range (km)
Doppler Factor

Next 0 passes for location: London (51.5072 / 0.1276)

Sorry there are no passes over London.